Tracking 18784 objects as of 18-August-2017
HD Live streaming from Space Station
objects crossing your sky now

METEOSAT 3

Track METEOSAT 3 now!
METEOSAT 3 is classified as:


NORAD ID: 19215
Int'l Code: 1988-051A
Perigee: 36,727.0 km
Apogee: 36,777.4 km
Inclination: 16.1 °
Period: 1,485.3 minutes
Semi major axis: 43123 km
RCS: 4.1367 m2 (large)
Launch date: June 15, 1988
Source: European Space Agency (ESA)
Launch site: FRENCH GUIANA (FRGUI)
Your satellite tracking list
Your tracking list is empty





NASA's NSSDC Master Catalog

Two Line Element Set (TLE):
1 19215U 88051A   17230.25566424 -.00000126  00000-0  00000+0 0  9996
2 19215  16.0930   8.1454 0005843 273.0512  68.2401  0.96947321 92138
Source of the keplerian elements: AFSPC